TimeEDT,TemperatureF,Dew PointF,Humidity,Sea Level PressureIn,VisibilityMPH,Wind Direction,Wind SpeedMPH,Gust SpeedMPH,PrecipitationIn,Events,Conditions,WindDirDegrees,DateUTC
12:26 AM,53.6,51.8,94,29.85,9.0,SSE,16.1,24.2,0.03,Rain,Light Rain,150,2012-10-19 04:26:00
12:53 AM,54.0,52.0,93,29.83,-9999.0,SE,17.3,24.2,0.05,Rain,Rain,140,2012-10-19 04:53:00
1:01 AM,53.6,51.8,94,29.84,8.0,SSE,16.1,24.2,0.01,Rain-Thunderstorm,Light Rain,150,2012-10-19 05:01:00
1:13 AM,53.6,51.8,94,29.85,10.0,South,11.5,-,N/A,Thunderstorm,Unknown,170,2012-10-19 05:13:00
1:26 AM,53.6,51.8,94,29.85,7.0,SSE,12.7,21.9,0.02,Rain-Thunderstorm,Rain,160,2012-10-19 05:26:00
1:34 AM,53.6,51.8,94,29.85,7.0,SSE,12.7,-,0.03,Rain,Rain,160,2012-10-19 05:34:00
1:46 AM,53.6,51.8,94,29.85,-9999.0,SSE,11.5,20.7,0.04,Rain,Light Rain,150,2012-10-19 05:46:00
1:53 AM,54.0,52.0,93,29.85,7.0,SSE,10.4,20.7,0.04,Rain,Rain,150,2012-10-19 05:53:00
2:18 AM,53.6,51.8,94,29.87,5.0,WSW,13.8,19.6,0.08,Rain,Rain,240,2012-10-19 06:18:00
2:30 AM,50.0,46.4,87,29.87,2.5,NW,8.1,26.5,0.19,Rain,Heavy Rain,320,2012-10-19 06:30:00
2:38 AM,48.2,46.4,93,29.87,8.0,NW,8.1,18.4,0.20,Rain,Light Rain,320,2012-10-19 06:38:00
2:48 AM,48.2,46.4,93,29.87,10.0,NNW,11.5,21.9,0.21,Rain,Light Rain,330,2012-10-19 06:48:00
2:53 AM,48.9,46.0,90,29.88,10.0,NNW,10.4,-,0.21,Rain,Light Rain,340,2012-10-19 06:53:00
3:53 AM,48.0,46.0,93,29.85,10.0,NNE,8.1,-,0.01,Rain,Light Rain,20,2012-10-19 07:53:00
4:53 AM,48.0,46.0,93,29.84,10.0,ENE,8.1,-,0.00,Rain,Light Rain,60,2012-10-19 08:53:00
5:25 AM,48.2,46.4,93,29.81,10.0,East,10.4,-,0.01,,Overcast,80,2012-10-19 09:25:00
5:53 AM,46.9,46.0,97,29.81,10.0,East,9.2,-,0.01,,Mostly Cloudy,90,2012-10-19 09:53:00
6:06 AM,48.2,46.4,93,29.81,10.0,East,6.9,-,N/A,,Overcast,90,2012-10-19 10:06:00
6:33 AM,48.2,46.4,93,29.81,10.0,ENE,4.6,-,N/A,,Overcast,70,2012-10-19 10:33:00
6:50 AM,48.2,46.4,93,29.81,10.0,ENE,4.6,-,N/A,,Overcast,60,2012-10-19 10:50:00
6:53 AM,48.0,46.9,96,29.81,10.0,NE,4.6,-,N/A,,Overcast,50,2012-10-19 10:53:00
7:13 AM,48.2,48.2,100,29.79,1.8,NNE,4.6,-,N/A,,Overcast,30,2012-10-19 11:13:00
7:24 AM,50.0,48.2,94,29.79,0.5,ENE,3.5,-,N/A,Fog,Fog,70,2012-10-19 11:24:00
7:51 AM,50.0,48.2,94,29.80,0.2,ESE,4.6,-,N/A,Fog,Fog,110,2012-10-19 11:51:00
7:53 AM,50.0,48.9,96,29.81,0.2,East,5.8,-,N/A,Fog,Fog,100,2012-10-19 11:53:00
7:57 AM,50.0,48.2,94,29.80,1.0,East,5.8,-,N/A,,Mist,90,2012-10-19 11:57:00
8:02 AM,50.0,48.2,94,29.80,3.0,East,3.5,-,N/A,,Overcast,90,2012-10-19 12:02:00
8:09 AM,50.0,48.2,94,29.78,1.5,ENE,6.9,-,N/A,,Overcast,60,2012-10-19 12:09:00
8:17 AM,50.0,48.2,94,29.78,0.8,East,8.1,-,N/A,,Overcast,90,2012-10-19 12:17:00
8:21 AM,51.8,48.2,88,29.79,2.5,ESE,8.1,-,N/A,,Overcast,110,2012-10-19 12:21:00
8:28 AM,51.8,50.0,94,29.78,10.0,East,5.8,-,N/A,,Overcast,90,2012-10-19 12:28:00
8:44 AM,51.8,50.0,94,29.77,7.0,East,3.5,-,0.00,Rain,Light Rain,80,2012-10-19 12:44:00
8:53 AM,51.1,50.0,96,29.78,7.0,East,4.6,-,0.00,Rain,Light Rain,100,2012-10-19 12:53:00
9:11 AM,51.8,50.0,94,29.79,3.0,Calm,Calm,-,0.01,Rain,Rain,0,2012-10-19 13:11:00
9:18 AM,51.8,51.8,100,29.78,2.5,Calm,Calm,-,0.03,Rain,Rain,0,2012-10-19 13:18:00
9:26 AM,51.8,51.8,100,29.78,9.0,Calm,Calm,-,0.04,Rain,Light Rain,0,2012-10-19 13:26:00
9:36 AM,51.8,51.8,100,29.77,0.8,Calm,Calm,-,0.04,Rain,Light Rain,0,2012-10-19 13:36:00
9:43 AM,51.8,51.8,100,29.77,0.2,NNW,4.6,-,0.05,Fog-Rain,Light Rain,340,2012-10-19 13:43:00
9:53 AM,51.1,50.0,96,29.77,0.2,NNW,3.5,-,0.11,Fog-Rain,Heavy Rain,330,2012-10-19 13:53:00
10:00 AM,51.8,48.2,88,29.78,1.0,Calm,Calm,-,0.07,Rain,Light Rain,0,2012-10-19 14:00:00
10:05 AM,51.8,50.0,94,29.79,0.5,West,6.9,-,0.07,Fog-Rain,Heavy Rain,270,2012-10-19 14:05:00
10:12 AM,50.0,48.2,94,29.80,0.1,West,12.7,-,0.15,Fog-Rain,Heavy Rain,270,2012-10-19 14:12:00
10:24 AM,51.8,50.0,94,29.77,0.8,NE,4.6,-,0.32,Rain,Heavy Rain,40,2012-10-19 14:24:00
10:31 AM,51.8,51.8,100,29.77,1.0,North,3.5,-,0.35,Rain,Light Rain,10,2012-10-19 14:31:00
10:34 AM,51.8,51.8,100,29.77,2.5,NW,5.8,-,0.35,Rain,Light Rain,310,2012-10-19 14:34:00
10:43 AM,51.8,50.0,94,29.77,0.5,NW,5.8,-,0.36,Fog-Rain,Light Rain,320,2012-10-19 14:43:00
10:48 AM,51.8,51.8,100,29.77,3.0,NNW,5.8,-,0.36,Rain,Light Rain,330,2012-10-19 14:48:00
10:53 AM,52.0,51.1,97,29.77,0.5,North,5.8,-,0.36,Fog-Rain,Light Rain,350,2012-10-19 14:53:00
11:03 AM,51.8,51.8,100,29.76,0.5,NE,5.8,-,0.01,Fog-Rain,Light Rain,40,2012-10-19 15:03:00
11:35 AM,51.8,51.8,100,29.75,0.2,East,10.4,-,0.01,Fog-Rain,Light Rain,90,2012-10-19 15:35:00
11:53 AM,52.0,51.1,97,29.74,0.5,East,12.7,-,0.03,Fog-Rain,Light Rain,100,2012-10-19 15:53:00
12:34 PM,55.4,53.6,94,29.73,2.0,SSE,3.5,-,0.03,,Overcast,150,2012-10-19 16:34:00
12:53 PM,55.0,54.0,96,29.72,3.0,SE,4.6,-,0.03,,Overcast,140,2012-10-19 16:53:00
1:15 PM,55.4,53.6,94,29.72,3.0,SSE,3.5,-,N/A,,Overcast,150,2012-10-19 17:15:00
1:25 PM,55.4,53.6,94,29.71,3.0,SSE,3.5,-,N/A,,Overcast,160,2012-10-19 17:25:00
1:53 PM,57.0,55.0,93,29.70,8.0,SE,5.8,-,0.00,,Overcast,140,2012-10-19 17:53:00
2:53 PM,57.0,55.9,96,29.70,10.0,Calm,Calm,-,0.00,Rain,Light Rain,0,2012-10-19 18:53:00
3:40 PM,60.8,57.2,88,29.68,10.0,Variable,4.6,-,0.00,,Overcast,0,2012-10-19 19:40:00
3:53 PM,62.1,59.0,90,29.68,10.0,SSW,8.1,-,0.00,,Overcast,200,2012-10-19 19:53:00
4:17 PM,62.6,57.2,82,29.67,10.0,SW,6.9,-,N/A,,Mostly Cloudy,230,2012-10-19 20:17:00
4:26 PM,62.6,57.2,82,29.67,10.0,WSW,5.8,-,N/A,,Scattered Clouds,240,2012-10-19 20:26:00
4:53 PM,62.1,57.9,86,29.66,10.0,SW,4.6,-,N/A,,Partly Cloudy,220,2012-10-19 20:53:00
5:53 PM,60.1,55.9,86,29.65,10.0,SW,4.6,-,N/A,,Partly Cloudy,220,2012-10-19 21:53:00
6:53 PM,59.0,55.9,90,29.65,10.0,West,4.6,-,N/A,,Mostly Cloudy,260,2012-10-19 22:53:00
7:53 PM,59.0,55.9,90,29.65,10.0,Calm,Calm,-,N/A,,Mostly Cloudy,0,2012-10-19 23:53:00
8:44 PM,55.4,53.6,94,29.65,1.8,Calm,Calm,-,N/A,,Partly Cloudy,0,2012-10-20 00:44:00
8:53 PM,57.0,55.9,96,29.65,10.0,Calm,Calm,-,N/A,,Partly Cloudy,0,2012-10-20 00:53:00
9:53 PM,55.4,53.6,94,29.64,10.0,Calm,Calm,-,N/A,,Mostly Cloudy,0,2012-10-20 01:53:00
10:06 PM,55.4,53.6,94,29.63,10.0,Calm,Calm,-,N/A,,Mostly Cloudy,0,2012-10-20 02:06:00
10:16 PM,55.4,55.4,100,29.65,9.0,Calm,Calm,-,N/A,Thunderstorm,Mostly Cloudy,0,2012-10-20 02:16:00
10:34 PM,55.4,51.8,88,29.67,1.8,SSW,11.5,21.9,0.11,Rain-Thunderstorm,Heavy Thunderstorms and Rain,210,2012-10-20 02:34:00
10:42 PM,55.4,51.8,88,29.66,3.0,South,15.0,23.0,0.17,Rain-Thunderstorm,Heavy Thunderstorms and Rain,190,2012-10-20 02:42:00
10:49 PM,55.4,51.8,88,29.65,4.0,South,10.4,21.9,0.20,Rain-Thunderstorm,Thunderstorms and Rain,180,2012-10-20 02:49:00
10:53 PM,55.0,51.1,86,29.65,6.0,South,9.2,18.4,0.21,Rain-Thunderstorm,Thunderstorms and Rain,190,2012-10-20 02:53:00
11:16 PM,53.6,51.8,94,29.65,10.0,SSE,5.8,-,0.03,Rain,Light Rain,160,2012-10-20 03:16:00
11:53 PM,53.1,50.0,89,29.64,10.0,Calm,Calm,-,0.03,,Overcast,0,2012-10-20 03:53:00